Location: Crescent
(42.8242°N, 73.7329°W)
Time: 02:42:54
(UTC+00:00)

Transit 4A - Pass Details

Date: 16 February 2026
Orbit: 864 x 977 km, 66.8° (Epoch: 7 March)

Event Time Altitude Azimuth Distance (km) Brightness Sun altitude
Rises 10:34:05 0° 252° (WSW) 3,463 - -14.7°
Reaches altitude 10° 10:37:04 10° 266° (W) 2,542 - -14.1°
Exits shadow 10:39:19 19° 286° (WNW) 2,014 9.0 -13.7°
Maximum altitude 10:41:42 24° 318° (NW) 1,795 9.0 -13.3°
Drops below altitude 10° 10:46:27 10° 11° (N) 2,609 10.3 -12.4°
Sets 10:49:34 0° 25° (NNE) 3,576 11.2 -11.8°
